Location: Bakov nad Jizerou
(50.4784°N, 14.9394°E)
Time: 23:25:04
(UTC+00:00)

Cosmos 1816 Rocket - Pass Details

Date: 16 June 2021
Orbit: 952 x 998 km, 82.9° (Epoch: 23 July)

Event Time Altitude Azimuth Distance (km) Brightness Sun altitude
Exits shadow 22:52:12 24° 176° (S) 1,847 5.3 -16.1°
Maximum altitude 22:56:00 74° 96° (E) 993 4.5 -16.1°
Drops below altitude 10° 23:02:07 10° 13° (NNE) 2,691 8.1 -16.1°
Sets 23:04:38 0° 12° (NNE) 3,642 9.2 -16.1°
